Погода в Борях

Россия / Псковская область     58°39′49″N   29°13′04″E
темп.,
°C
ветер,
м/с
пор.,
м/с
влажн.,
%
обл.,
%
осадки,
мм/ч
давл.,
гПа
погр.,
м
11 апреля, вс
вс1100:00−1юз28825 0.0 1019177
03:00−2ююз28865 0.0 1021170
06:00−2ююз27845 0.0 1023147
09:00+4юз355614 0.0 1024377
12:00+8юз23315 0.0 10261243
15:00+10ю233098 0.0 10261662
18:00+9юв244969 0.0 10261396
21:00+6вюв387999 0.0 1027235
12 апреля, пн
пн1200:00+7юв41184100 0.0 1027395
03:00+5юв3109590 0.0 1026258
06:00+6ююв3129285 0.0 1025282
09:00+9ю51470100 0.0 1025499
12:00+14ю6114831 0.0 10251134
15:00+16ю694193 0.0 10231557
18:00+15ююв595097 0.0 10221423
21:00+10ююв31365100 0.0 1022373
13 апреля, вт
вт1300:00+8ююв3127556 0.0 1020280
03:00+6ююв288267 0.0 1019155
06:00+5ю2484100 0.0 101977
09:00+7ююв2778100 0.1 1019214
12:00+9ю2773100 0.0 1020328
15:00+11зюз3666100 0.1 1020834
18:00+6з4791100 0.8 1021525
21:00+5сз2693100 0.9 1022507
14 апреля, ср
ср1400:00+4зсз1294100 0.0 102270
03:00+3зсз2389100 0.0 1023100
06:00+2ссз259898 0.0 1023172
09:00+4ссз2477100 0.0 1024424
12:00+5с3462100 0.0 1024800
15:00+7с3453100 0.0 10241163
18:00+6ссз3550100 0.0 1024909
21:00+3ссз3764100 0.0 1025276
15 апреля, чт
чт1500:00+1с3873100 0.0 1026289
03:000с2682100 0.0 1026148
06:000с2682100 0.0 1026160
09:00+4ссв365645 0.0 1027601
12:00+8ссв46406 0.0 10271330
15:00+10ссв46340 0.0 10271569
18:00+9ссв47442 0.0 10281510
21:00+4ссв39681 0.0 1030225